#timestamp,LO_Frequency,Hit,StdDev 
1592154015.2,286046993.3,N
1592154035.1,286046990.3,N
1592154036.0,286046990.3,N
1592154055.8,286046990.9,N
1592154075.6,286046992.8,N
1592154095.5,286046993.8,N
1592154115.3,286046997.2,N
1592154135.1,286047001.0,N
1592154155.9,286047004.2,N
1592154175.7,286047006.8,N
1592154195.6,286047015.6,N
1592154215.4,286047014.4,N
1592154235.2,286047012.5,N
1592154255.1,286047013.8,N
1592154256.0,286047013.8,N
1592154275.8,286047010.3,N
1592154295.6,286047004.7,N
1592154315.5,286047000.0,N
1592154335.3,286046999.3,N
1592154355.2,286046999.6,N
1592154375.9,286046997.1,N
1592154395.7,286046997.6,N
1592154415.6,286046993.9,N
1592154435.4,286046991.0,N
1592154455.2,286046987.3,N
1592154475.1,286046988.7,N
1592154476.0,286046988.7,N
1592154495.8,286046992.7,N
1592154515.7,286046994.8,N
1592154535.5,286046992.6,N
1592154555.3,286046993.0,N
1592154575.2,286046993.2,N
1592154595.9,286046992.1,N
1592154615.7,286046994.1,N
1592154635.6,286046991.4,N
1592154655.4,286046989.9,N
1592154675.2,286046988.8,N
1592154695.1,286046988.9,N
1592154696.0,286046988.9,N
1592154715.8,286046987.2,N
1592154735.7,286046988.3,N
1592154755.5,286046983.4,N
1592154775.3,286046976.1,N
1592154795.2,286046974.5,Y
1592154815.0,286046982.2,P
1592154815.9,286046982.2,P
1592154835.8,286046986.8,N
1592154855.6,286046988.2,N
1592154875.4,286046983.8,Y
1592154895.3,286046995.8,P
1592154915.1,286046990.1,N
1592154935.8,286046991.0,N
1592154955.7,286046992.5,N
1592154975.5,286046994.9,N
1592154995.3,286046997.4,N
1592155015.2,286046997.1,N
1592155035.0,286046997.1,N
1592155035.9,286046997.1,N
1592155055.8,286046999.3,N
1592155075.6,286046998.9,N
1592155095.4,286047001.0,N
1592155115.3,286046997.5,N
1592155135.1,286046993.5,N
1592155155.8,286046991.1,N
1592155175.7,286046992.7,N
1592155195.5,286046988.9,Y
1592155215.4,286046997.5,P
1592155235.2,286046996.6,N
1592155255.0,286047002.6,N
1592155255.9,286047002.6,N
1592155275.8,286047001.4,N
1592155295.6,286046999.0,N
1592155315.4,286046994.7,N
1592155335.3,286046996.1,N
1592155355.1,286046998.3,N
1592155375.9,286047000.7,N
1592155395.7,286046995.0,N
1592155415.5,286046993.1,N
1592155435.4,286046990.9,N
1592155455.2,286046994.6,N
1592155475.0,286046995.2,N
1592155475.9,286046995.2,N
1592155495.8,286046998.0,N
1592155515.6,286046996.5,N
1592155535.5,286047000.2,N
1592155555.3,286046997.4,N
1592155575.1,286046994.4,N
1592155595.9,286046988.7,Y
1592155615.7,286046989.4,P
1592155635.5,286046992.9,N
1592155655.4,286046991.4,N
1592155675.2,286046987.4,Y
1592155695.1,286046996.2,P
1592155696.0,286046996.2,N
1592155715.8,286046996.0,N
1592155735.6,286046997.5,N
1592155755.5,286046999.6,N
1592155775.3,286047001.0,N
1592155795.1,286046995.5,N
1592155815.9,286046997.6,N
1592155835.7,286046993.6,N
1592155855.6,286046994.2,N
1592155875.4,286046996.1,N
1592155895.2,286046999.5,N
1592155915.1,286047003.4,N
1592155916.0,286047003.4,N
1592155935.8,286047006.0,N
1592155955.7,286047001.6,N
1592155975.5,286047002.5,N
1592155995.3,286047000.3,N
1592156015.2,286047003.8,N
1592156035.9,286047007.5,N
1592156055.7,286047006.5,N
1592156075.6,286047006.3,N
1592156095.4,286047005.3,N
1592156115.2,286047005.4,N
1592156135.1,286047007.3,N
1592156136.0,286047007.3,N
1592156155.8,286047008.7,N
1592156175.7,286047010.6,N
1592156195.5,286047011.1,N
1592156215.3,286047013.3,N
1592156235.2,286047015.6,N
1592156255.0,286047015.8,N
1592156255.9,286047015.8,N
1592156275.8,286047020.8,Y
1592156295.6,286047018.9,P
1592156315.4,286047023.0,P
1592156335.3,286047026.2,P
1592156355.1,286047027.2,Y
1592156375.8,286047011.2,P
1592156395.7,286047012.2,P
1592156415.5,286047013.6,P
1592156435.4,286047015.3,Y
1592156455.2,286047004.0,P
1592156475.0,286047004.3,N
1592156475.9,286047004.3,N
1592156495.8,286047003.5,N
1592156515.6,286047007.6,N
1592156535.5,286047006.9,N
1592156555.3,286047011.9,Y
1592156575.1,286047007.1,P
1592156595.9,286047009.1,P
1592156615.7,286047008.0,P
1592156635.5,286047009.3,Y
1592156655.4,286047004.4,P
1592156675.2,286047002.9,N
1592156695.1,286047007.5,P
1592156696.0,286047007.5,Y
1592156715.8,286047002.5,P
1592156735.6,286047001.8,N
1592156755.5,286047000.6,N
1592156775.3,286047001.4,N
1592156795.1,286047005.0,N
1592156815.9,286047006.5,Y
1592156835.7,286047005.3,P
1592156855.6,286047006.8,P
1592156875.4,286047009.7,P
1592156895.2,286047012.7,Y
1592156915.1,286047008.1,P
1592156916.0,286047008.1,P
1592156935.8,286047006.4,P
1592156955.7,286047007.2,Y
1592156975.5,286047001.2,P
1592156995.3,286047000.8,N
1592157015.2,286047000.7,N
1592157035.9,286046999.7,N
1592157055.7,286047004.2,N
1592157075.6,286047005.1,N
1592157095.4,286047009.2,Y
1592157115.3,286047002.2,P
1592157135.1,286047000.0,N
1592157136.0,286047000.0,N
1592157155.8,286047000.1,N
1592157175.7,286047003.4,N
1592157195.5,286047007.6,Y
1592157215.3,286047008.4,P
1592157235.2,286047009.9,N
1592157255.0,286047010.5,N
1592157255.9,286047010.5,N
1592157275.8,286047008.1,N
1592157295.6,286047008.3,N
1592157315.4,286047004.9,N
1592157335.3,286047002.8,N
1592157355.1,286046995.7,N
1592157375.9,286046991.9,N
1592157395.7,286046991.4,N
1592157415.5,286046987.8,N
1592157435.4,286046989.8,N
1592157455.2,286046983.7,N
1592157475.1,286046984.8,N
1592157476.0,286046984.8,N
1592157495.8,286046984.6,N
1592157515.6,286046983.8,N
1592157535.5,286046982.4,N
1592157555.3,286046984.0,N
1592157575.1,286046984.9,N
1592157595.9,286046984.9,N
